Location: ??????????
(54.7560°N, 39.1389°E)
Time: 14:48:06
(UTC+00:00)

CZ-2C R/B - Pass Details

Date: 19 May 2025
Orbit: 783 x 867 km, 98.4° (Epoch: 20 June)

Event Time Altitude Azimuth Distance (km) Brightness Sun altitude
Exits shadow 20:55:05 - 120° (ESE) 2,697 5.0 -15.1°
Reaches altitude 10° 20:56:05 10° 114° (ESE) 2,350 4.7 -15.1°
Maximum altitude 21:00:25 28° 57° (ENE) 1,444 4.2 -15.2°
Drops below altitude 10° 21:04:46 10° 0° (N) 2,355 6.4 -15.2°
Sets 21:07:21 0° 349° (N) 3,290 7.6 -15.2°
